Ballenas Island, British Columbia

9:25 PM PST on November 18, 2017 (GMT -0800)
Ballenas Island

Weather History for CWGB - June, 2013

Change the Weather History Date:

Friday, June 28, 2013

  Actual Average Record
Temperature  
Mean Temperature 61 °F -  
Max Temperature 63 °F - - ()
Min Temperature 59 °F - - ()
Degree Days  
Heating Degree Days 4    
Growing Degree Days 11 (Base 50)    
Moisture  
Dew Point 59 °F    
Average Humidity 91    
Maximum Humidity 94    
Minimum Humidity 83    
Precipitation  
Precipitation 0.01 in - - ()
Sea Level Pressure  
Sea Level Pressure 30.12 in    
Wind  
Wind Speed 4 mph ()    
Max Wind Speed 9 mph    
Max Gust Speed -    
T = Trace of Precipitation, MM = Missing Value Source: Averaged Metar Reports

Daily Weather History Graph

Daily Weather History Graph

Search for Another Location

Airport or City:

Trip Planner

Search our weather history database for the weather conditions in past years. The results will help you decide how hot, cold, wet, or windy it might be!

Date:

Astronomy

Jun. 28, 2013 Rise Set
Actual Time 5:13 AM PDT 9:26 PM PDT
Civil Twilight 4:30 AM PDT 10:09 PM PDT
Nautical Twilight 3:28 AM PDT 11:11 PM PDT
Astronomical Twilight 1:52 AM PDT 12:47 AM PDT
Moon No Moon Rise 12:03 PM PDT (6/28)
Length of Visible Light 17h 39m
Length of Day
16h 13m
Waning Gibbous, 65% of the Moon is Illuminated
Jun 28
Waning Gibbous
Jun 29
Last Quarter
Jul 8
New
Jul 15
First Quarter
Jul 22
Full

Hourly Weather History & Observations

Time (PDT) Temp. Dew Point Humidity Pressure Visibility Wind Dir Wind Speed Gust Speed Precip Events Conditions
12:00 AM 59.7 °F 57.6 °F 93% 30.19 in - ESE 4.6 mph - N/A   Unknown
1:00 AM 60.1 °F 57.9 °F 93% 30.18 in - East 9.2 mph - N/A   Unknown
2:00 AM 59.4 °F 57.6 °F 94% 30.18 in - ESE 5.8 mph - N/A   Unknown
3:00 AM 59.2 °F 57.4 °F 94% 30.18 in - East 4.6 mph - N/A   Unknown
4:00 AM 59.5 °F 57.9 °F 94% 30.17 in - South 2.3 mph - N/A   Unknown
5:00 AM 60 °F 58 °F 92% 30.16 in - ENE 4.6 mph - -  
5:00 AM 59.9 °F 58.3 °F 94% 30.16 in - ENE 4.6 mph - N/A   Unknown
6:00 AM 60.1 °F 58.5 °F 94% 30.16 in - ENE 6.9 mph - N/A   Unknown
7:00 AM 60.4 °F 58.8 °F 94% 30.16 in - East 3.5 mph - N/A   Unknown
8:00 AM 60.1 °F 58.3 °F 94% 30.16 in - WNW 2.3 mph - N/A   Unknown
9:00 AM 61.7 °F 59.4 °F 92% 30.14 in - ENE 2.3 mph - N/A   Unknown
10:00 AM 62.1 °F 58.8 °F 89% 30.12 in - East 1.2 mph - N/A   Unknown
11:00 AM 61.0 °F 58.8 °F 93% 30.12 in - NW 3.5 mph - 0.01 in   Unknown
12:00 PM 61.0 °F 59.0 °F 93% 30.11 in - WNW 3.5 mph - N/A   Unknown
1:00 PM 62.1 °F 59.9 °F 93% 30.11 in - NNE 1.2 mph - N/A   Unknown
2:00 PM 61.9 °F 59.2 °F 91% 30.09 in - East 2.3 mph - N/A   Unknown
3:00 PM 61.3 °F 58.5 °F 90% 30.08 in - ESE 6.9 mph - N/A   Unknown
4:00 PM 61.9 °F 59.4 °F 91% 30.07 in - ESE 4.6 mph - N/A   Unknown
5:00 PM 63 °F 60 °F 89% 30.07 in - ENE 1.2 mph - -  
5:00 PM 62.8 °F 60.4 °F 92% 30.07 in - ENE 1.2 mph - N/A   Unknown
6:00 PM 63.0 °F 59.5 °F 89% 30.05 in - NE 9.2 mph - N/A   Unknown
7:00 PM 63.0 °F 59.5 °F 89% 30.06 in - NNE 9.2 mph - N/A   Unknown
8:00 PM 61.7 °F 59.4 °F 92% 30.06 in - West 3.5 mph - N/A   Unknown
9:00 PM 62.6 °F 59.7 °F 90% 30.06 in - South 4.6 mph - N/A   Unknown
10:00 PM 62.8 °F 59.0 °F 87% 30.06 in - SSE 3.5 mph - N/A   Unknown
11:00 PM 63 °F 59 °F 83% 30.07 in - SSE 3.5 mph - -  
11:00 PM 63.3 °F 59.2 °F 86% 30.07 in - SSE 3.5 mph - N/A   Unknown